Time,TemperatureF,DewpointF,PressureIn,WindDirection,WindDirectionDegrees,WindSpeedMPH,WindSpeedGustMPH,Humidity,HourlyPrecipIn,Conditions,Clouds,dailyrainin,SoftwareType,DateUTC
2013-01-18 00:04:00,62.0,-99.9,30.09,WNW,296,12.0,18.0,-999,-99.99,,,-99.99,,2013-01-18 05:04:00,
2013-01-18 00:12:00,62.0,-99.9,30.09,WNW,295,12.0,16.0,-999,-99.99,,,-99.99,,2013-01-18 05:12:00,
2013-01-18 00:22:00,62.0,-99.9,30.10,WNW,301,11.0,17.0,-999,-99.99,,,-99.99,,2013-01-18 05:22:00,
2013-01-18 00:33:00,62.0,-99.9,30.10,WNW,302,13.0,18.0,-999,-99.99,,,-99.99,,2013-01-18 05:33:00,
2013-01-18 00:43:00,61.0,-99.9,30.10,NW,305,12.0,17.0,-999,-99.99,,,-99.99,,2013-01-18 05:43:00,
2013-01-18 00:53:00,61.0,-99.9,30.10,NW,304,12.0,16.0,-999,-99.99,,,-99.99,,2013-01-18 05:53:00,
2013-01-18 01:03:00,61.0,-99.9,30.10,WNW,300,12.0,19.0,-999,-99.99,,,-99.99,,2013-01-18 06:03:00,
2013-01-18 01:12:00,61.0,-99.9,30.11,NW,304,9.0,16.0,-999,-99.99,,,-99.99,,2013-01-18 06:12:00,
2013-01-18 01:23:00,61.0,-99.9,30.11,WNW,300,12.0,16.0,-999,-99.99,,,-99.99,,2013-01-18 06:23:00,
2013-01-18 01:33:00,61.0,-99.9,30.10,WNW,300,14.0,18.0,-999,-99.99,,,-99.99,,2013-01-18 06:33:00,
2013-01-18 01:43:00,60.0,-99.9,30.10,WNW,303,12.0,18.0,-999,-99.99,,,-99.99,,2013-01-18 06:43:00,
2013-01-18 01:53:00,60.0,-99.9,30.10,WNW,300,14.0,18.0,-999,-99.99,,,-99.99,,2013-01-18 06:53:00,
2013-01-18 02:02:00,60.0,-99.9,30.11,WNW,290,10.0,18.0,-999,-99.99,,,-99.99,,2013-01-18 07:02:00,
2013-01-18 02:12:00,60.0,-99.9,30.11,WNW,294,13.0,18.0,-999,-99.99,,,-99.99,,2013-01-18 07:12:00,
2013-01-18 02:22:00,60.0,-99.9,30.11,WNW,300,10.0,16.0,-999,-99.99,,,-99.99,,2013-01-18 07:22:00,
2013-01-18 02:33:00,60.0,-99.9,30.11,WNW,302,10.0,15.0,-999,-99.99,,,-99.99,,2013-01-18 07:33:00,
2013-01-18 02:43:00,59.0,-99.9,30.11,WNW,293,10.0,15.0,-999,-99.99,,,-99.99,,2013-01-18 07:43:00,
2013-01-18 02:52:00,59.0,-99.9,30.11,WNW,299,10.0,13.0,-999,-99.99,,,-99.99,,2013-01-18 07:52:00,
2013-01-18 03:02:00,59.0,-99.9,30.11,NNW,332,13.0,15.0,-999,-99.99,,,-99.99,,2013-01-18 08:02:00,
2013-01-18 03:12:00,58.0,-99.9,30.11,NW,325,10.0,13.0,-999,-99.99,,,-99.99,,2013-01-18 08:12:00,
2013-01-18 03:22:00,58.0,-99.9,30.12,NW,314,9.0,12.0,-999,-99.99,,,-99.99,,2013-01-18 08:22:00,
2013-01-18 03:33:00,58.0,-99.9,30.12,NW,316,9.0,12.0,-999,-99.99,,,-99.99,,2013-01-18 08:33:00,
2013-01-18 03:43:00,58.0,-99.9,30.12,NNW,333,11.0,14.0,-999,-99.99,,,-99.99,,2013-01-18 08:43:00,
2013-01-18 03:53:00,58.0,-99.9,30.12,NNW,327,10.0,13.0,-999,-99.99,,,-99.99,,2013-01-18 08:53:00,
2013-01-18 04:03:00,57.0,-99.9,30.12,NW,321,10.0,13.0,-999,-99.99,,,-99.99,,2013-01-18 09:03:00,
2013-01-18 04:12:00,57.0,-99.9,30.13,NW,322,13.0,16.0,-999,-99.99,,,-99.99,,2013-01-18 09:12:00,
2013-01-18 04:22:00,57.0,-99.9,30.13,NW,324,13.0,17.0,-999,-99.99,,,-99.99,,2013-01-18 09:22:00,
2013-01-18 04:33:00,57.0,-99.9,30.13,NNW,331,13.0,17.0,-999,-99.99,,,-99.99,,2013-01-18 09:33:00,
2013-01-18 04:43:00,57.0,-99.9,30.13,NW,321,14.0,17.0,-999,-99.99,,,-99.99,,2013-01-18 09:43:00,
2013-01-18 04:53:00,56.0,-99.9,30.13,NW,318,12.0,14.0,-999,-99.99,,,-99.99,,2013-01-18 09:53:00,
2013-01-18 05:03:00,56.0,-99.9,30.14,NW,326,13.0,18.0,-999,-99.99,,,-99.99,,2013-01-18 10:03:00,
2013-01-18 05:12:00,56.0,-99.9,30.14,NW,321,12.0,15.0,-999,-99.99,,,-99.99,,2013-01-18 10:12:00,
2013-01-18 05:22:00,55.0,-99.9,30.14,NW,322,13.0,15.0,-999,-99.99,,,-99.99,,2013-01-18 10:22:00,
2013-01-18 05:33:00,55.0,-99.9,30.14,NW,321,14.0,17.0,-999,-99.99,,,-99.99,,2013-01-18 10:33:00,
2013-01-18 05:43:00,54.0,-99.9,30.14,NNW,333,15.0,20.0,-999,-99.99,,,-99.99,,2013-01-18 10:43:00,
2013-01-18 05:53:00,54.0,-99.9,30.15,NNW,328,16.0,21.0,-999,-99.99,,,-99.99,,2013-01-18 10:53:00,
2013-01-18 06:03:00,54.0,-99.9,30.15,NW,322,14.0,20.0,-999,-99.99,,,-99.99,,2013-01-18 11:03:00,
2013-01-18 06:12:00,54.0,-99.9,30.16,NW,326,12.0,16.0,-999,-99.99,,,-99.99,,2013-01-18 11:12:00,
2013-01-18 06:23:00,54.0,-99.9,30.16,NNW,335,15.0,19.0,-999,-99.99,,,-99.99,,2013-01-18 11:23:00,
2013-01-18 06:33:00,53.0,-99.9,30.16,NW,318,14.0,20.0,-999,-99.99,,,-99.99,,2013-01-18 11:33:00,
2013-01-18 06:43:00,53.0,-99.9,30.17,NW,318,12.0,15.0,-999,-99.99,,,-99.99,,2013-01-18 11:43:00,
2013-01-18 06:53:00,53.0,-99.9,30.17,WNW,300,13.0,16.0,-999,-99.99,,,-99.99,,2013-01-18 11:53:00,
2013-01-18 07:03:00,53.0,-99.9,30.18,WNW,295,11.0,15.0,-999,-99.99,,,-99.99,,2013-01-18 12:03:00,
2013-01-18 07:12:00,52.0,-99.9,30.18,WNW,295,11.0,17.0,-999,-99.99,,,-99.99,,2013-01-18 12:12:00,
2013-01-18 07:23:00,53.0,-99.9,30.19,WNW,294,11.0,16.0,-999,-99.99,,,-99.99,,2013-01-18 12:23:00,
2013-01-18 07:33:00,53.0,-99.9,30.19,NW,310,12.0,16.0,-999,-99.99,,,-99.99,,2013-01-18 12:33:00,
2013-01-18 07:43:00,52.0,-99.9,30.19,WNW,303,12.0,16.0,-999,-99.99,,,-99.99,,2013-01-18 12:43:00,
2013-01-18 07:53:00,52.0,-99.9,30.19,NW,305,14.0,19.0,-999,-99.99,,,-99.99,,2013-01-18 12:53:00,
2013-01-18 08:03:00,52.0,-99.9,30.20,WNW,302,12.0,17.0,-999,-99.99,,,-99.99,,2013-01-18 13:03:00,
2013-01-18 08:12:00,52.0,-99.9,30.20,WNW,302,11.0,16.0,-999,-99.99,,,-99.99,,2013-01-18 13:12:00,
2013-01-18 08:23:00,53.0,-99.9,30.20,NW,312,13.0,19.0,-999,-99.99,,,-99.99,,2013-01-18 13:23:00,
2013-01-18 08:34:00,53.0,-99.9,30.21,NW,317,12.0,17.0,-999,-99.99,,,-99.99,,2013-01-18 13:34:00,
2013-01-18 08:43:00,53.0,-99.9,30.21,NW,307,11.0,17.0,-999,-99.99,,,-99.99,,2013-01-18 13:43:00,
2013-01-18 08:53:00,53.0,-99.9,30.21,NW,315,17.0,19.0,-999,-99.99,,,-99.99,,2013-01-18 13:53:00,
2013-01-18 09:03:00,54.0,-99.9,30.22,NW,313,13.0,19.0,-999,-99.99,,,-99.99,,2013-01-18 14:03:00,
2013-01-18 09:13:00,54.0,-99.9,30.22,NW,321,14.0,21.0,-999,-99.99,,,-99.99,,2013-01-18 14:13:00,
2013-01-18 09:23:00,54.0,-99.9,30.22,NW,325,12.0,17.0,-999,-99.99,,,-99.99,,2013-01-18 14:23:00,
2013-01-18 09:34:00,54.0,-99.9,30.22,WNW,303,12.0,17.0,-999,-99.99,,,-99.99,,2013-01-18 14:34:00,
2013-01-18 09:43:00,54.0,-99.9,30.23,WNW,298,13.0,15.0,-999,-99.99,,,-99.99,,2013-01-18 14:43:00,
2013-01-18 09:53:00,55.0,-99.9,30.23,NW,312,13.0,17.0,-999,-99.99,,,-99.99,,2013-01-18 14:53:00,
2013-01-18 10:03:00,55.0,-99.9,30.23,NW,321,14.0,19.0,-999,-99.99,,,-99.99,,2013-01-18 15:03:00,
2013-01-18 10:13:00,55.0,-99.9,30.23,NW,317,14.0,18.0,-999,-99.99,,,-99.99,,2013-01-18 15:13:00,
2013-01-18 10:23:00,55.0,-99.9,30.23,NW,312,12.0,17.0,-999,-99.99,,,-99.99,,2013-01-18 15:23:00,
2013-01-18 10:34:00,55.0,-99.9,30.23,NW,319,13.0,16.0,-999,-99.99,,,-99.99,,2013-01-18 15:34:00,
2013-01-18 10:44:00,56.0,-99.9,30.23,NW,320,12.0,16.0,-999,-99.99,,,-99.99,,2013-01-18 15:44:00,
2013-01-18 10:54:00,56.0,-99.9,30.23,NNW,330,11.0,15.0,-999,-99.99,,,-99.99,,2013-01-18 15:54:00,
2013-01-18 11:03:00,57.0,-99.9,30.23,NNW,339,11.0,14.0,-999,-99.99,,,-99.99,,2013-01-18 16:03:00,
2013-01-18 11:13:00,58.0,-99.9,30.23,NW,321,10.0,14.0,-999,-99.99,,,-99.99,,2013-01-18 16:13:00,
2013-01-18 11:23:00,58.0,-99.9,30.23,NNW,331,11.0,14.0,-999,-99.99,,,-99.99,,2013-01-18 16:23:00,
2013-01-18 11:33:00,59.0,-99.9,30.23,NNW,332,7.0,13.0,-999,-99.99,,,-99.99,,2013-01-18 16:33:00,
2013-01-18 11:43:00,59.0,-99.9,30.23,WNW,302,9.0,12.0,-999,-99.99,,,-99.99,,2013-01-18 16:43:00,
2013-01-18 11:53:00,59.0,-99.9,30.22,NNW,342,9.0,12.0,-999,-99.99,,,-99.99,,2013-01-18 16:53:00,
2013-01-18 12:03:00,60.0,-99.9,30.22,NNW,340,9.0,13.0,-999,-99.99,,,-99.99,,2013-01-18 17:03:00,
2013-01-18 12:13:00,60.0,-99.9,30.22,NNW,346,9.0,13.0,-999,-99.99,,,-99.99,,2013-01-18 17:13:00,
2013-01-18 12:23:00,61.0,-99.9,30.22,NW,318,7.0,11.0,-999,-99.99,,,-99.99,,2013-01-18 17:23:00,
2013-01-18 12:34:00,61.0,-99.9,30.21,North,3,9.0,11.0,-999,-99.99,,,-99.99,,2013-01-18 17:34:00,
2013-01-18 12:43:00,62.0,-99.9,30.20,North,359,10.0,11.0,-999,-99.99,,,-99.99,,2013-01-18 17:43:00,
2013-01-18 12:53:00,62.0,-99.9,30.20,North,3,7.0,9.0,-999,-99.99,,,-99.99,,2013-01-18 17:53:00,
2013-01-18 13:03:00,62.0,-99.9,30.19,North,356,13.0,16.0,-999,-99.99,,,-99.99,,2013-01-18 18:03:00,
2013-01-18 13:13:00,63.0,-99.9,30.19,North,354,10.0,14.0,-999,-99.99,,,-99.99,,2013-01-18 18:13:00,
2013-01-18 13:24:00,64.0,-99.9,30.19,NNE,13,10.0,17.0,-999,-99.99,,,-99.99,,2013-01-18 18:24:00,
2013-01-18 13:34:00,64.0,-99.9,30.18,North,8,13.0,14.0,-999,-99.99,,,-99.99,,2013-01-18 18:34:00,
2013-01-18 13:44:00,64.0,-99.9,30.18,North,6,11.0,15.0,-999,-99.99,,,-99.99,,2013-01-18 18:44:00,
2013-01-18 13:53:00,64.0,-99.9,30.17,North,8,13.0,16.0,-999,-99.99,,,-99.99,,2013-01-18 18:53:00,
2013-01-18 14:03:00,64.0,-99.9,30.17,North,7,14.0,16.0,-999,-99.99,,,-99.99,,2013-01-18 19:03:00,
2013-01-18 14:13:00,65.0,-99.9,30.17,North,8,11.0,15.0,-999,-99.99,,,-99.99,,2013-01-18 19:13:00,
2013-01-18 14:23:00,65.0,-99.9,30.17,North,7,13.0,15.0,-999,-99.99,,,-99.99,,2013-01-18 19:23:00,
2013-01-18 14:33:00,65.0,-99.9,30.16,North,8,12.0,16.0,-999,-99.99,,,-99.99,,2013-01-18 19:33:00,
2013-01-18 14:43:00,65.0,-99.9,30.16,North,2,16.0,17.0,-999,-99.99,,,-99.99,,2013-01-18 19:43:00,
2013-01-18 14:53:00,65.0,-99.9,30.16,North,1,14.0,16.0,-999,-99.99,,,-99.99,,2013-01-18 19:53:00,
2013-01-18 15:03:00,66.0,-99.9,30.16,North,7,14.0,18.0,-999,-99.99,,,-99.99,,2013-01-18 20:03:00,
2013-01-18 15:13:00,67.0,-99.9,30.16,North,8,14.0,19.0,-999,-99.99,,,-99.99,,2013-01-18 20:13:00,
2013-01-18 15:23:00,67.0,-99.9,30.16,North,8,14.0,17.0,-999,-99.99,,,-99.99,,2013-01-18 20:23:00,
2013-01-18 15:33:00,67.0,-99.9,30.16,NNE,18,17.0,19.0,-999,-99.99,,,-99.99,,2013-01-18 20:33:00,
2013-01-18 15:43:00,68.0,-99.9,30.16,North,8,15.0,19.0,-999,-99.99,,,-99.99,,2013-01-18 20:43:00,
2013-01-18 15:53:00,68.0,-99.9,30.16,North,8,15.0,21.0,-999,-99.99,,,-99.99,,2013-01-18 20:53:00,
2013-01-18 16:03:00,68.0,-99.9,30.16,North,10,17.0,20.0,-999,-99.99,,,-99.99,,2013-01-18 21:03:00,
2013-01-18 16:13:00,69.0,-99.9,30.16,North,11,18.0,23.0,-999,-99.99,,,-99.99,,2013-01-18 21:13:00,
2013-01-18 16:23:00,69.0,-99.9,30.16,NNE,17,19.0,23.0,-999,-99.99,,,-99.99,,2013-01-18 21:23:00,
2013-01-18 16:33:00,69.0,-99.9,30.16,North,10,15.0,20.0,-999,-99.99,,,-99.99,,2013-01-18 21:33:00,
2013-01-18 16:43:00,71.0,-99.9,30.16,NNE,20,18.0,22.0,-999,-99.99,,,-99.99,,2013-01-18 21:43:00,
2013-01-18 16:53:00,70.0,-99.9,30.16,NNE,22,19.0,25.0,-999,-99.99,,,-99.99,,2013-01-18 21:53:00,
2013-01-18 17:03:00,71.0,-99.9,30.16,NNE,23,21.0,25.0,-999,-99.99,,,-99.99,,2013-01-18 22:03:00,
2013-01-18 17:12:00,71.0,-99.9,30.16,NNE,24,17.0,24.0,-999,-99.99,,,-99.99,,2013-01-18 22:12:00,
2013-01-18 17:23:00,71.0,-99.9,30.17,NNE,27,19.0,22.0,-999,-99.99,,,-99.99,,2013-01-18 22:23:00,
2013-01-18 17:33:00,71.0,-99.9,30.17,NE,34,17.0,21.0,-999,-99.99,,,-99.99,,2013-01-18 22:33:00,
2013-01-18 17:43:00,71.0,-99.9,30.17,NE,34,17.0,21.0,-999,-99.99,,,-99.99,,2013-01-18 22:43:00,
2013-01-18 17:53:00,71.0,-99.9,30.18,NNE,32,19.0,23.0,-999,-99.99,,,-99.99,,2013-01-18 22:53:00,
2013-01-18 18:03:00,71.0,-99.9,30.18,NNE,27,17.0,23.0,-999,-99.99,,,-99.99,,2013-01-18 23:03:00,
2013-01-18 18:12:00,71.0,-99.9,30.18,NNE,25,19.0,23.0,-999,-99.99,,,-99.99,,2013-01-18 23:12:00,
2013-01-18 18:23:00,71.0,-99.9,30.18,NE,34,17.0,24.0,-999,-99.99,,,-99.99,,2013-01-18 23:23:00,
2013-01-18 18:33:00,71.0,-99.9,30.19,NE,37,19.0,21.0,-999,-99.99,,,-99.99,,2013-01-18 23:33:00,
2013-01-18 18:43:00,71.0,-99.9,30.19,NE,44,18.0,22.0,-999,-99.99,,,-99.99,,2013-01-18 23:43:00,
2013-01-18 18:53:00,71.0,-99.9,30.19,NE,40,20.0,24.0,-999,-99.99,,,-99.99,,2013-01-18 23:53:00,
2013-01-18 19:03:00,71.0,-99.9,30.19,NE,41,20.0,23.0,-999,-99.99,,,-99.99,,2013-01-19 00:03:00,
2013-01-18 19:13:00,71.0,-99.9,30.19,NNE,31,20.0,23.0,-999,-99.99,,,-99.99,,2013-01-19 00:13:00,
2013-01-18 19:23:00,71.0,-99.9,30.19,NE,46,19.0,23.0,-999,-99.99,,,-99.99,,2013-01-19 00:23:00,
2013-01-18 19:33:00,71.0,-99.9,30.20,NE,39,21.0,24.0,-999,-99.99,,,-99.99,,2013-01-19 00:33:00,
2013-01-18 19:43:00,71.0,-99.9,30.20,NE,44,21.0,23.0,-999,-99.99,,,-99.99,,2013-01-19 00:43:00,
2013-01-18 19:53:00,71.0,-99.9,30.20,NE,49,19.0,23.0,-999,-99.99,,,-99.99,,2013-01-19 00:53:00,
2013-01-18 20:03:00,71.0,-99.9,30.20,ENE,60,19.0,22.0,-999,-99.99,,,-99.99,,2013-01-19 01:03:00,
2013-01-18 20:13:00,71.0,-99.9,30.20,NE,50,20.0,28.0,-999,-99.99,,,-99.99,,2013-01-19 01:13:00,
2013-01-18 20:23:00,71.0,-99.9,30.20,NE,54,22.0,25.0,-999,-99.99,,,-99.99,,2013-01-19 01:23:00,
2013-01-18 20:33:00,71.0,-99.9,30.20,ENE,60,22.0,26.0,-999,-99.99,,,-99.99,,2013-01-19 01:33:00,
2013-01-18 20:43:00,71.0,-99.9,30.20,ENE,61,22.0,27.0,-999,-99.99,,,-99.99,,2013-01-19 01:43:00,
2013-01-18 20:53:00,71.0,-99.9,30.20,ENE,61,21.0,27.0,-999,-99.99,,,-99.99,,2013-01-19 01:53:00,
2013-01-18 21:03:00,71.0,-99.9,30.20,ENE,62,20.0,25.0,-999,-99.99,,,-99.99,,2013-01-19 02:03:00,
2013-01-18 21:12:00,71.0,-99.9,30.20,ENE,60,21.0,25.0,-999,-99.99,,,-99.99,,2013-01-19 02:12:00,
2013-01-18 21:23:00,71.0,-99.9,30.20,ENE,58,21.0,24.0,-999,-99.99,,,-99.99,,2013-01-19 02:23:00,
2013-01-18 21:33:00,71.0,-99.9,30.20,NE,56,23.0,27.0,-999,-99.99,,,-99.99,,2013-01-19 02:33:00,
2013-01-18 21:43:00,71.0,-99.9,30.20,NE,50,21.0,24.0,-999,-99.99,,,-99.99,,2013-01-19 02:43:00,
2013-01-18 21:53:00,71.0,-99.9,30.21,NE,52,21.0,24.0,-999,-99.99,,,-99.99,,2013-01-19 02:53:00,
2013-01-18 22:03:00,71.0,-99.9,30.21,ENE,60,19.0,23.0,-999,-99.99,,,-99.99,,2013-01-19 03:03:00,
2013-01-18 22:12:00,71.0,-99.9,30.21,NE,56,19.0,21.0,-999,-99.99,,,-99.99,,2013-01-19 03:12:00,
2013-01-18 22:23:00,71.0,-99.9,30.20,NE,48,20.0,24.0,-999,-99.99,,,-99.99,,2013-01-19 03:23:00,
2013-01-18 22:33:00,71.0,-99.9,30.20,NE,48,20.0,24.0,-999,-99.99,,,-99.99,,2013-01-19 03:33:00,
2013-01-18 22:44:00,71.0,-99.9,30.20,ENE,75,18.0,23.0,-999,-99.99,,,-99.99,,2013-01-19 03:44:00,
2013-01-18 22:53:00,71.0,-99.9,30.20,ENE,72,18.0,22.0,-999,-99.99,,,-99.99,,2013-01-19 03:53:00,
2013-01-18 23:03:00,71.0,-99.9,30.20,ENE,74,18.0,22.0,-999,-99.99,,,-99.99,,2013-01-19 04:03:00,
2013-01-18 23:12:00,71.0,-99.9,30.20,ENE,66,19.0,23.0,-999,-99.99,,,-99.99,,2013-01-19 04:12:00,
2013-01-18 23:22:00,71.0,-99.9,30.19,ENE,64,19.0,22.0,-999,-99.99,,,-99.99,,2013-01-19 04:22:00,
2013-01-18 23:33:00,71.0,-99.9,30.19,ENE,60,19.0,23.0,-999,-99.99,,,-99.99,,2013-01-19 04:33:00,
2013-01-18 23:43:00,71.0,-99.9,30.19,ENE,71,19.0,22.0,-999,-99.99,,,-99.99,,2013-01-19 04:43:00,
2013-01-18 23:53:00,71.0,-99.9,30.19,ENE,73,17.0,22.0,-999,-99.99,,,-99.99,,2013-01-19 04:53:00,